Location: Deuil
(48.9767°N, 2.3272°E)
Time: 03:12:34
(UTC+00:00)

Cosmos 2360 Rocket - Pass Details

Date: 22 May 2022
Orbit: 832 x 846 km, 71.0° (Epoch: 03 July)

Event Time Altitude Azimuth Distance (km) Brightness Sun altitude
Exits shadow 22:44:49 29° 131° (SE) 1,493 3.0 -19.1°
Maximum altitude 22:46:05 32° 105° (ESE) 1,400 3.1 -19.2°
Drops below altitude 10° 22:51:02 10° 44° (NE) 2,464 5.0 -19.4°
Sets 22:53:42 0° 35° (NE) 3,405 6.0 -19.5°
